Regional Weather Roundup
Issued by NWS

Home | Current Version | Previous Version | Graphics & Text | Print | Product List | Glossary On
Versions: 1 2 3 4 5 6 7 8 9 10 11 12 13 14 15 16 17 18 19 20 21 22 23 24 25 26 27 28 29 30 31 32 33 34 35 36 37 38 39 40 41 42 43 44 45 46 47 48 49 50
000
ASUS45 KABQ 270110
RWRNM
WEATHER ROUNDUP FOR NEW MEXICO
NATIONAL WEATHER SERVICE ALBUQUERQUE NM
600 PM MST THU FEB 26 2015

NOTE: "FAIR" MEANS FEW OR NO CLOUDS BELOW 12,000 FEET AGL WITH NO
       SIGNIFICANT WEATHER OR OBSTRUCTIONS TO VISION.

      THIS PRODUCT IS RELEASED AS TWO VERSIONS.  ONE VERSION NEAR
      THE TOP OF THE HOUR CONTAINING PRELIMINARY DATA FROM ALBUQUERQUE
      AND OTHER STATIONS.  A FINAL VERSION WITH ADDITIONAL DATA IS
      ISSUED ABOUT 10 MINUTES AFTER THE HOUR.

NMZ501-503-504-510>518-270200-
NORTHWEST PLATEAU/NORTHCENTRAL MOUNTAINS

CITY           SKY/WX    TMP DP  RH WIND       PRES   REMARKS
FARMINGTON     CLOUDY    40  18  41 VRB7      29.85S
LOS ALAMOS     CLOUDY    23  22  97 S9        29.95S WCI  13
SANTA FE       CLOUDY    24  17  74 SE20G28   29.98R WCI  10
TAOS           MOCLDY    27  18  69 W8        29.92R WCI  18
ANGEL FIRE     CLOUDY    16  13  90 S23       29.91S WCI  -2

$$
NMZ402-403-502-505>509-270200-
WESTCENTRAL MOUNTAINS/SOUTHWEST MOUNTAINS

CITY           SKY/WX    TMP DP  RH WIND       PRES   REMARKS
GALLUP         CLOUDY    40  21  46 S9        29.85F WCI  34
GRANTS         CLOUDY    39  17  41 CALM      29.89F
SILVER CITY    CLOUDY    54  21  28 W5        29.89S

$$
NMZ407-409-411-412-270200-
SOUTHERN DESERTS

CITY           SKY/WX    TMP DP  RH WIND       PRES   REMARKS
LORDSBURG      FAIR      59  23  25 CALM      29.82F
DEMING         CLOUDY    58  21  24 SE9       29.85S
LAS CRUCES     PTCLDY    45  28  52 SE17G25   29.93R
HOLLOMAN AFB   MOCLDY    46  24  42 S16       29.93S
ALAMOGORDO     MOCLDY    46  25  42 MISG      29.94F
T OR C         CLOUDY    49  29  46 SE18G28   29.87R

$$
NMZ519>523-270200-
CENTRAL VALLEYS/CENTRAL HIGHLANDS

CITY           SKY/WX    TMP DP  RH WIND       PRES   REMARKS
ALBUQUERQUE    CLOUDY    34  20  56 E24       29.94S WCI  21
DOUBLE EAGLE   LGT SNOW  34  21  60 VRB7      29.96R WCI  28
MORIARTY ARPT  CLOUDY    22  19  89 SE16      30.04S WCI   8
CLINES CORNERS FOG       18  16  92 SE14      29.99R VSB<1/4 WCI   4
BELEN          FAIR      38  22  54 SE22      29.93S WCI  27
SOCORRO        FLURRIES  33  32  94 S5        29.98R WCI  29

$$
NMZ524>526-539-540-270200-
SOUTHCENTRAL MOUNTAINS

CITY           SKY/WX    TMP DP  RH WIND       PRES   REMARKS
RUIDOSO        LGT SNOW  19  18  93 MISG      30.05S

$$
NMZ527>531-270200-
NORTHEAST HIGHLANDS/NORTHEAST PLAINS

CITY           SKY/WX    TMP DP  RH WIND       PRES   REMARKS
LAS VEGAS      SNOW      17  15  92 S15       30.01S VSB<1/4 WCI   2
RATON          CLOUDY    16  15  96 S16       30.03R FOG     WCI   1
CLAYTON        LGT SNOW  18  13  80 E14       30.17R WCI   4

$$
NMZ532>537-270200-
EASTCENTRAL PLAINS

CITY           SKY/WX    TMP DP  RH WIND       PRES   REMARKS
TUCUMCARI      CLOUDY    24  18  77 E12       30.21R WCI  13
CANNON AFB     NOT AVBL
CLOVIS AIRPORT CLOUDY    21  18  86 E14       30.21R WCI   8

$$
NMZ028-029-538-270200-
SOUTHEAST PLAINS

CITY           SKY/WX    TMP DP  RH WIND       PRES   REMARKS
ROSWELL        CLOUDY    31  21  66 E10       30.17F WCI  22
ARTESIA        CLOUDY    30  23  74 SE8       30.20R WCI  23
CARLSBAD       CLOUDY    33  21  61 E9        30.19R WCI  25
HOBBS          CLOUDY    27  16  63 NE13      30.22R WCI  16


$$



USA.gov is the U.S. government's official web portal to all federal, state and local government web resources and services.